This is the latest recevied weather packets stored in our database for station/object IZ3MEZ-13. If no packets are shown the sender has not sent any weather packets the latest 10 day(s).
| Time | Temp. | Humidity | Pressure | Rain* | Wind** | Luminosity | Snow |
|---|---|---|---|---|---|---|---|
| 1777722622 | 26.67° C | 33% | 1025 hPa | 0 mm | - | 728 W/m² | - |
| 1777722031 | 27.22° C | 35% | 1025.2 hPa | 0 mm | - | 769 W/m² | - |
| 1777721417 | 27.22° C | 34% | 1025.3 hPa | 0 mm | - | 771 W/m² | - |
| 1777720826 | 27.22° C | 35% | 1025.4 hPa | 0 mm | - | 768 W/m² | - |
| 1777720223 | 27.78° C | 34% | 1025.6 hPa | 0 mm | - | 763 W/m² | - |
| 1777719620 | 27.22° C | 35% | 1025.8 hPa | 0 mm | - | 773 W/m² | - |
| 1777719026 | 27.22° C | 35% | 1025.9 hPa | 0 mm | - | 749 W/m² | - |
| 1777718417 | 26.11° C | 35% | 1026.1 hPa | 0 mm | - | 744 W/m² | - |
| 1777717822 | 26.11° C | 36% | 1026.2 hPa | 0 mm | - | 752 W/m² | - |
| 1777717223 | 25.56° C | 37% | 1026.2 hPa | 0 mm | - | 753 W/m² | - |
| 1777716619 | 23.33° C | 40% | 1026.4 hPa | 0 mm | - | 728 W/m² | - |
| 1777716028 | 22.22° C | 42% | 1026.6 hPa | 0 mm | - | 753 W/m² | - |
| 1777715431 | 21.67° C | 43% | 1026.6 hPa | 0 mm | - | 705 W/m² | - |
| 1777714820 | 21.11° C | 44% | 1026.6 hPa | 0 mm | - | 666 W/m² | - |
| 1777714222 | 20.56° C | 45% | 1026.8 hPa | 0 mm | - | 677 W/m² | - |
| 1777713619 | 20.56° C | 46% | 1026.8 hPa | 0 mm | - | 643 W/m² | - |
| 1777713022 | 20° C | 48% | 1026.9 hPa | 0 mm | - | 52 W/m² | - |
| 1777712719 | 20° C | 49% | 1027 hPa | 0 mm | - | 53 W/m² | - |
| 1777712128 | 19.44° C | 50% | 1026.9 hPa | 0 mm | - | 48 W/m² | - |
| 1777711520 | 18.89° C | 51% | 1027 hPa | 0 mm | - | 51 W/m² | - |
| 1777711222 | 18.33° C | 52% | 1026.9 hPa | 0 mm | - | 60 W/m² | - |
| 1777710916 | 18.33° C | 52% | 1027.1 hPa | 0 mm | - | 46 W/m² | - |
| 1777710331 | 18.33° C | 52% | 1027.1 hPa | 0 mm | - | 182 W/m² | - |
| 1777709722 | 17.78° C | 51% | 1027.2 hPa | 0 mm | - | 55 W/m² | - |
| 1777709120 | 17.22° C | 53% | 1027.3 hPa | 0 mm | - | 62 W/m² | - |
* Rain latest hour (hover to see other rain measurements)
** Current wind speed in m/s (hover to see current wind gust speed)